TimeCDT,TemperatureF,Dew PointF,Humidity,Sea Level PressureIn,VisibilityMPH,Wind Direction,Wind SpeedMPH,Gust SpeedMPH,PrecipitationIn,Events,Conditions,WindDirDegrees,DateUTC
1:53 AM,46.0,37.9,73,30.01,10.0,Calm,Calm,-,N/A,,Clear,0,2013-10-02 06:53:00
2:53 AM,45.0,39.0,80,30.01,10.0,Calm,Calm,-,N/A,,Clear,0,2013-10-02 07:53:00
3:53 AM,45.0,39.0,80,30.03,10.0,Calm,Calm,-,N/A,,Clear,0,2013-10-02 08:53:00
4:53 AM,43.0,39.0,86,30.03,10.0,Calm,Calm,-,N/A,,Clear,0,2013-10-02 09:53:00
5:53 AM,43.0,39.0,86,30.03,10.0,South,3.5,-,N/A,,Clear,190,2013-10-02 10:53:00
6:53 AM,42.1,39.0,89,30.03,10.0,Calm,Calm,-,N/A,,Clear,0,2013-10-02 11:53:00
7:53 AM,44.1,41.0,89,30.04,10.0,Calm,Calm,-,N/A,,Clear,0,2013-10-02 12:53:00
8:53 AM,57.0,45.0,64,30.04,10.0,SE,3.5,-,N/A,,Clear,130,2013-10-02 13:53:00
9:53 AM,60.1,42.1,51,30.04,10.0,SE,4.6,-,N/A,,Clear,140,2013-10-02 14:53:00
10:53 AM,66.9,43.0,42,30.03,10.0,SE,4.6,-,N/A,,Clear,130,2013-10-02 15:53:00
11:53 AM,71.1,36.0,28,30.01,10.0,SE,9.2,-,N/A,,Clear,140,2013-10-02 16:53:00
12:53 PM,73.0,36.0,26,30.01,10.0,SE,9.2,19.6,N/A,,Partly Cloudy,140,2013-10-02 17:53:00
1:53 PM,75.0,35.1,23,29.97,10.0,SE,8.1,-,N/A,,Overcast,130,2013-10-02 18:53:00
2:53 PM,75.0,36.0,24,29.92,10.0,SE,16.1,21.9,N/A,,Scattered Clouds,130,2013-10-02 19:53:00
3:53 PM,75.0,37.9,26,29.89,10.0,ESE,11.5,21.9,N/A,,Mostly Cloudy,120,2013-10-02 20:53:00
4:53 PM,75.0,39.0,27,29.86,10.0,SE,11.5,-,N/A,,Mostly Cloudy,130,2013-10-02 21:53:00
5:53 PM,73.0,39.0,29,29.85,10.0,SE,9.2,-,N/A,,Mostly Cloudy,130,2013-10-02 22:53:00
6:31 PM,73.4,39.2,29,29.87,10.0,North,12.7,-,N/A,Thunderstorm,Mostly Cloudy,360,2013-10-02 23:31:00
6:50 PM,69.8,44.6,40,29.87,10.0,NNE,9.2,-,0.00,Rain-Thunderstorm,Light Rain,20,2013-10-02 23:50:00
6:53 PM,68.0,45.0,43,29.88,10.0,NNE,6.9,-,0.00,Rain-Thunderstorm,Light Rain,20,2013-10-02 23:53:00
7:27 PM,62.6,51.8,68,29.88,10.0,East,8.1,-,0.02,Rain-Thunderstorm,Light Rain,90,2013-10-03 00:27:00
7:53 PM,60.1,52.0,75,29.89,6.0,ENE,5.8,-,0.07,Rain-Thunderstorm,Thunderstorms and Rain,60,2013-10-03 00:53:00
8:34 PM,59.0,53.6,82,29.88,10.0,ENE,4.6,-,0.04,,Overcast,60,2013-10-03 01:34:00
8:53 PM,57.9,54.0,87,29.91,10.0,North,9.2,-,0.04,,Overcast,360,2013-10-03 01:53:00
9:04 PM,57.2,53.6,88,29.91,10.0,NNE,8.1,-,0.00,Rain-Thunderstorm,Light Rain,20,2013-10-03 02:04:00
9:33 PM,55.4,51.8,88,29.95,2.5,NW,15.0,21.9,0.17,Rain-Thunderstorm,Thunderstorms and Rain,320,2013-10-03 02:33:00
9:53 PM,55.9,53.1,90,29.93,3.0,East,10.4,-,0.41,Rain,Rain,90,2013-10-03 02:53:00
10:05 PM,55.4,53.6,94,29.88,5.0,East,17.3,23.0,0.03,Rain-Thunderstorm,Thunderstorms and Rain,100,2013-10-03 03:05:00
10:34 PM,57.2,53.6,88,29.86,7.0,ESE,9.2,-,0.09,Rain-Thunderstorm,Light Rain,110,2013-10-03 03:34:00
10:53 PM,57.0,54.0,89,29.86,10.0,ESE,5.8,-,0.11,Rain,Light Rain,110,2013-10-03 03:53:00
11:05 PM,57.2,53.6,88,29.84,9.0,East,6.9,-,0.00,Rain-Thunderstorm,Light Rain,100,2013-10-03 04:05:00
11:20 PM,57.2,53.6,88,29.87,10.0,SE,4.6,-,0.01,Rain,Light Rain,130,2013-10-03 04:20:00
11:53 PM,57.9,55.0,90,29.84,7.0,ESE,5.8,-,0.07,Rain,Light Rain,110,2013-10-03 04:53:00